Flag for Netherlands Weather past 2 weeks in Emmen, Netherlands

Now
78 °F

Warm.


Feels Like: 80 °F
Forecast: 59 / 72 °F
Wind: 2 mph from Southeast

Location: Meppen

Current Time: Jul 5, 2015 at 5:35:12 PM

Latest Report: Jul 5, 2015 at 4:00 PM


Visibility: 4 mi

Pressure: 29.91 "Hg

Humidity: 64%

Dew point: 65 °F

Location of EmmenLocation

Historic Weather in Emmen — Graph

°F

Emmen temperature yesterday

Maximum temperature yesterday: 94 °F (at 4:00 PM)
Minimum temperature yesterday: 65 °F (at 6:00 AM)
Average temperature yesterday: 79 °F

Past Weeks' High & Low Weather Summary

 TemperatureHumidityPressure
High96 °F (Jul 2, 6:00 PM)95% (Jun 23, 3:00 AM)30.27 "Hg (Jun 23, 3:00 AM)
Low46 °F (Jun 23, 4:00 AM)27% (Jul 2, 4:00 PM)29.68 "Hg (Jun 22, 10:00 PM)
Average65 °F70%30.07 "Hg
* Reported Jun 20 4:00 PM — Jul 5 4:00 PM, Emmen, Weather by CustomWeather, © 2015

Note: Actual official high and low records may vary slightly from our data, if they occured in-between our weather recording intervals... More about our weather records

Advertising

Emmen weather history for previous 24 hours

 ConditionsComfort  
Time TempWeatherWind HumidityBarometerVisibility
4:00 PM
Sun, Jul 5
78 °FWarm.2 mph64%29.91 "Hg4 mi
3:00 PM77 °FMild.2 mph72%29.93 "Hg3 mi
2:00 PMN/APassing clouds.1 mphN/AN/A14 mi
1:00 PM78 °FWarm.3 mph69%30.03 "Hg3 mi
12:00 PM75 °FMild.3 mph75%30.03 "Hg3 mi
10:00 AM71 °FMild.3 mph82%30.06 "Hg3 mi
9:00 AM69 °FMild.2 mph85%30.08 "Hg3 mi
7:00 AM66 °FMild.1 mph90%30.09 "Hg3 mi
6:00 AM63 °FMild.N/A92%30.10 "Hg2 mi
4:00 AM66 °FMild.2 mph89%30.11 "Hg3 mi
3:00 AM66 °FMild.1 mph84%30.12 "Hg4 mi
2:00 AM67 °FMild.2 mph82%30.12 "Hg4 mi
1:00 AM67 °FMild.N/A77%30.11 "Hg4 mi
12:00 AM69 °FMild.2 mph76%30.10 "Hg4 mi
10:00 PM
Sat, Jul 4
76 °FMild.2 mph66%30.10 "Hg4 mi
9:00 PM82 °FWarm.2 mph52%30.09 "Hg4 mi
7:00 PM88 °FHot.5 mph45%30.06 "Hg4 mi
6:00 PM91 °FHot.6 mph43%30.05 "Hg4 mi
Weather by CustomWeather, © 2015

See weather overviewHow to use our weather pages